QPF
0.00 0.00 0.00 0.00 0.00 0.00 0.00 0.00 0.00 0.00 0.00 0.00 0.00 0.00 0.01 0.01 0.01 0.01 0.01 0.01 0.01 0.01 0.01 0.01 0.01 0.01 0.01 0.01 0.01 0.01 0.01 0.02 0.02 0.03 0.03 0.03 0.02 0.02 0.01 0.01 0.00 0.01 0.01 0.01
0.00 0.00 0.00 0.00 0.00 0.00 0.00 0.00 0.00 0.00 0.01 0.01 0.00 0.00 0.01 0.01 0.01 0.01 0.01 0.01 0.01 0.01 0.01 0.01 0.01 0.02 0.06 0.04 0.02 0.02 0.02 0.02 0.03 0.03 0.03 0.02 0.02 0.02 0.03 0.02 0.01 0.01 0.02 0.03
0.00 0.00 0.00 0.00 0.00 0.00 0.00 0.00 0.00 0.00 0.01 0.02 0.01 0.01 0.00 0.00 0.01 0.01 0.02 0.01 0.01 0.01 0.01 0.03 0.03 0.05 0.06 0.04 0.01 0.01 0.01 0.01 0.02 0.03 0.03 0.02 0.02 0.01 0.01 0.01 0.01 0.01 0.02 0.02
0.00 0.00 0.00 0.00 0.00 0.00 0.00 0.00 0.00 0.00 0.00 0.01 0.01 0.01 0.00 0.01 0.01 0.01 0.01 0.01 0.01 0.01 0.01 0.02 0.02 0.04 0.06 0.03 0.01 0.00 0.01 0.01 0.01 0.01 0.01 0.02 0.01 0.01 0.02 0.02 0.01 0.01 0.01 0.01
0.00 0.00 0.00 0.00 0.00 0.00 0.00 0.00 0.00 0.00 0.00 0.01 0.01 0.01 0.01 0.00 0.01 0.01 0.01 0.01 0.01 0.01 0.01 0.01 0.02 0.03 0.06 0.03 0.03 0.02 0.02 0.01 0.01 0.01 0.01 0.01 0.01 0.01 0.02 0.02 0.01 0.01 0.01 0.00
0.00 0.00 0.00 0.00 0.00 0.00 0.00 0.00 0.00 0.00 0.00 0.00 0.00 0.00 0.01 0.00 0.01 0.01 0.01 0.01 0.00 0.00 0.00 0.01 0.02 0.02 0.02 0.03 0.03 0.03 0.03 0.02 0.01 0.01 0.01 0.01 0.01 0.01 0.01 0.01 0.01 0.01 0.01 0.01
0.00 0.00 0.00 0.00 0.00 0.00 0.00 0.00 0.00 0.00 0.00 0.00 0.00 0.00 0.00 0.00 0.00 0.01 0.01 0.00 0.00 0.00 0.00 0.01 0.02 0.02 0.02 0.01 0.02 0.03 0.03 0.02 0.01 0.01 0.01 0.01 0.01 0.01 0.01 0.01 0.01 0.01 0.01 0.01
0.00 0.00 0.00 0.00 0.00 0.00 0.00 0.00 0.00 0.00 0.00 0.00 0.00 0.00 0.00 0.00 0.00 0.00 0.00 0.00 0.00 0.00 0.00 0.01 0.01 0.03 0.03 0.02 0.01 0.02 0.02 0.03 0.02 0.01 0.01 0.01 0.02 0.01 0.01 0.01 0.01 0.01 0.01 0.01
0.00 0.00 0.00 0.00 0.00 0.00 0.00 0.00 0.00 0.00 0.00 0.00 0.00 0.00 0.00 0.00 0.00 0.00 0.00 0.00 0.00 0.00 0.01 0.01 0.01 0.02 0.02 0.03 0.02 0.02 0.02 0.02 0.02 0.02 0.02 0.01 0.01 0.01 0.01 0.01 0.01 0.01 0.01 0.02
0.00 0.00 0.00 0.00 0.00 0.00 0.00 0.00 0.00 0.00 0.00 0.00 0.00 0.00 0.00 0.00 0.00 0.00 0.00 0.00 0.00 0.00 0.00 0.00 0.01 0.02 0.02 0.02 0.02 0.01 0.01 0.02 0.02 0.02 0.02 0.01 0.01 0.01 0.01 0.01 0.01 0.01 0.01 0.02
0.00 0.00 0.00 0.00 0.00 0.00 0.00 0.00 0.00 0.00 0.00 0.00 0.00 0.00 0.00 0.00 0.00 0.00 0.00 0.00 0.00 0.00 0.01 0.01 0.01 0.02 0.02 0.03 0.03 0.02 0.01 0.02 0.02 0.02 0.02 0.03 0.03 0.02 0.03 0.03 0.02 0.02 0.02 0.02
0.00 0.00 0.00 0.00 0.00 0.00 0.00 0.00 0.00 0.00 0.00 0.00 0.00 0.00 0.00 0.00 0.00 0.00 0.00 0.00 0.00 0.01 0.01 0.01 0.01 0.01 0.01 0.03 0.03 0.03 0.02 0.01 0.02 0.03 0.04 0.04 0.06 0.07 0.06 0.04 0.04 0.03 0.03 0.03
0.00 0.00 0.00 0.00 0.00 0.00 0.00 0.00 0.00 0.00 0.00 0.00 0.00 0.00 0.00 0.00 0.00 0.00 0.00 0.01 0.01 0.01 0.01 0.01 0.01 0.01 0.01 0.02 0.03 0.03 0.02 0.01 0.02 0.04 0.04 0.04 0.05 0.07 0.08 0.07 0.06 0.05 0.05 0.05
0.00 0.00 0.00 0.00 0.00 0.00 0.00 0.00 0.00 0.00 0.00 0.00 0.00 0.00 0.00 0.00 0.00 0.00 0.00 0.01 0.01 0.01 0.02 0.02 0.01 0.01 0.01 0.01 0.02 0.03 0.02 0.02 0.02 0.03 0.04 0.05 0.06 0.05 0.05 0.06 0.07 0.05 0.05 0.04
0.00 0.00 0.00 0.00 0.00 0.00 0.00 0.00 0.00 0.00 0.00 0.00 0.01 0.00 0.00 0.00 0.00 0.01 0.01 0.01 0.01 0.01 0.02 0.03 0.03 0.02 0.02 0.01 0.01 0.02 0.02 0.02 0.03 0.04 0.05 0.05 0.07 0.07 0.07 0.06 0.06 0.05 0.04 0.03
0.00 0.00 0.00 0.00 0.00 0.00 0.00 0.00 0.00 0.00 0.00 0.00 0.00 0.00 0.00 0.00 0.01 0.01 0.02 0.02 0.01 0.02 0.02 0.02 0.03 0.04 0.04 0.03 0.03 0.03 0.03 0.03 0.03 0.04 0.06 0.08 0.08 0.07 0.06 0.07 0.07 0.06 0.05 0.05
0.00 0.00 0.00 0.00 0.00 0.00 0.00 0.00 0.01 0.00 0.00 0.01 0.01 0.00 0.01 0.01 0.01 0.02 0.02 0.02 0.02 0.01 0.01 0.02 0.03 0.03 0.04 0.05 0.06 0.05 0.05 0.05 0.06 0.08 0.10 0.12 0.11 0.11 0.10 0.11 0.10 0.08 0.06 0.06
0.00 0.00 0.00 0.00 0.00 0.00 0.00 0.00 0.01 0.01 0.01 0.01 0.01 0.01 0.01 0.01 0.01 0.02 0.02 0.02 0.01 0.01 0.01 0.02 0.02 0.02 0.02 0.03 0.04 0.05 0.04 0.05 0.07 0.09 0.10 0.12 0.11 0.09 0.10 0.12 0.11 0.09 0.09 0.08
0.00 0.00 0.00 0.00 0.00 0.00 0.00 0.00 0.01 0.01 0.01 0.01 0.01 0.01 0.01 0.01 0.02 0.02 0.01 0.01 0.02 0.02 0.01 0.01 0.01 0.02 0.02 0.02 0.04 0.06 0.05 0.05 0.06 0.08 0.09 0.09 0.12 0.13 0.10 0.09 0.09 0.10 0.11 0.11
0.00 0.00 0.00 0.00 0.00 0.00 0.00 0.00 0.00 0.01 0.01 0.01 0.01 0.01 0.01 0.01 0.02 0.01 0.01 0.01 0.01 0.01 0.01 0.01 0.02 0.02 0.02 0.03 0.03 0.03 0.05 0.06 0.06 0.08 0.10 0.09 0.10 0.13 0.14 0.12 0.11 0.12 0.11 0.12
0.00 0.00 0.00 0.00 0.00 0.00 0.00 0.00 0.00 0.01 0.01 0.01 0.01 0.01 0.01 0.01 0.01 0.02 0.02 0.02 0.02 0.01 0.01 0.01 0.02 0.03 0.04 0.04 0.04 0.03 0.04 0.04 0.05 0.06 0.07 0.07 0.07 0.09 0.13 0.12 0.10 0.10 0.10 0.11
0.00 0.00 0.00 0.00 0.00 0.00 0.00 0.00 0.01 0.01 0.01 0.01 0.01 0.01 0.01 0.01 0.02 0.02 0.02 0.01 0.01 0.01 0.01 0.02 0.03 0.04 0.05 0.06 0.06 0.06 0.05 0.04 0.05 0.05 0.05 0.05 0.05 0.05 0.06 0.07 0.07 0.08 0.09 0.11
0.00 0.00 0.00 0.00 0.00 0.00 0.00 0.00 0.01 0.01 0.01 0.01 0.01 0.01 0.02 0.02 0.02 0.02 0.02 0.02 0.01 0.01 0.01 0.02 0.03 0.05 0.06 0.06 0.07 0.07 0.06 0.05 0.04 0.05 0.06 0.05 0.04 0.04 0.05 0.07 0.06 0.08 0.08 0.09
0.00 0.00 0.00 0.00 0.00 0.01 0.01 0.01 0.01 0.00 0.00 0.00 0.01 0.01 0.01 0.01 0.02 0.02 0.02 0.03 0.03 0.02 0.03 0.05 0.06 0.05 0.04 0.04 0.05 0.05 0.04 0.04 0.04 0.04 0.05 0.05 0.04 0.03 0.04 0.05 0.04 0.04 0.05 0.05
0.00 0.00 0.00 0.00 0.00 0.00 0.00 0.01 0.00 0.00 0.00 0.00 0.00 0.01 0.01 0.01 0.01 0.02 0.02 0.02 0.03 0.03 0.03 0.04 0.04 0.04 0.05 0.04 0.03 0.03 0.03 0.04 0.03 0.03 0.03 0.03 0.03 0.03 0.04 0.04 0.03 0.03 0.03 0.04
0.00 0.00 0.00 0.00 0.00 0.00 0.00 0.00 0.00 0.00 0.00 0.00 0.00 0.01 0.02 0.02 0.03 0.03 0.03 0.03 0.03 0.04 0.05 0.05 0.05 0.04 0.05 0.07 0.05 0.04 0.05 0.05 0.05 0.04 0.02 0.02 0.02 0.03 0.03 0.03 0.02 0.02 0.03 0.03
MSLP
1008.60 1009.57 1010.41 1011.11 1011.71 1012.24 1012.72 1013.18 1013.60 1013.97 1014.24 1014.39 1014.40 1014.29 1014.09 1013.85 1013.64 1013.48 1013.40 1013.40 1013.43 1013.45 1013.40 1013.24 1012.97 1012.60 1012.18 1011.79 1011.47 1011.28 1011.25 1011.37 1011.58 1011.84 1012.06 1012.21 1012.25 1012.18 1012.02 1011.82 1011.64 1011.52 1011.49 1011.56
1009.18 1009.97 1010.61 1011.14 1011.61 1012.07 1012.57 1013.11 1013.65 1014.16 1014.57 1014.81 1014.88 1014.76 1014.52 1014.20 1013.91 1013.69 1013.59 1013.60 1013.68 1013.78 1013.81 1013.73 1013.50 1013.15 1012.71 1012.25 1011.87 1011.61 1011.52 1011.59 1011.78 1012.03 1012.26 1012.39 1012.39 1012.25 1012.00 1011.68 1011.35 1011.09 1010.93 1010.89
1009.51 1010.10 1010.53 1010.89 1011.25 1011.68 1012.23 1012.89 1013.60 1014.28 1014.84 1015.19 1015.30 1015.17 1014.85 1014.43 1014.02 1013.71 1013.56 1013.56 1013.69 1013.87 1014.02 1014.05 1013.92 1013.63 1013.22 1012.77 1012.35 1012.05 1011.91 1011.95 1012.12 1012.35 1012.57 1012.69 1012.67 1012.48 1012.14 1011.72 1011.27 1010.87 1010.56 1010.40
1009.62 1009.99 1010.23 1010.45 1010.74 1011.19 1011.83 1012.65 1013.55 1014.42 1015.14 1015.59 1015.73 1015.56 1015.13 1014.57 1014.01 1013.57 1013.32 1013.30 1013.45 1013.71 1013.98 1014.15 1014.16 1013.99 1013.66 1013.25 1012.85 1012.53 1012.37 1012.37 1012.51 1012.73 1012.94 1013.05 1013.02 1012.80 1012.42 1011.92 1011.37 1010.85 1010.42 1010.12
1009.56 1009.73 1009.82 1009.94 1010.22 1010.73 1011.50 1012.50 1013.61 1014.67 1015.53 1016.07 1016.21 1015.96 1015.40 1014.67 1013.92 1013.31 1012.94 1012.85 1013.01 1013.35 1013.74 1014.06 1014.23 1014.20 1014.00 1013.67 1013.30 1012.99 1012.80 1012.78 1012.89 1013.08 1013.28 1013.40 1013.37 1013.16 1012.76 1012.23 1011.62 1011.02 1010.48 1010.06
1009.40 1009.42 1009.40 1009.48 1009.79 1010.40 1011.32 1012.51 1013.81 1015.03 1016.01 1016.60 1016.71 1016.37 1015.66 1014.73 1013.78 1012.99 1012.49 1012.32 1012.47 1012.86 1013.37 1013.84 1014.17 1014.30 1014.23 1014.00 1013.68 1013.39 1013.19 1013.12 1013.20 1013.36 1013.55 1013.67 1013.66 1013.47 1013.10 1012.57 1011.95 1011.31 1010.71 1010.19
1009.24 1009.15 1009.07 1009.16 1009.52 1010.25 1011.32 1012.67 1014.12 1015.46 1016.51 1017.11 1017.17 1016.72 1015.86 1014.75 1013.62 1012.67 1012.04 1011.80 1011.94 1012.37 1012.97 1013.58 1014.06 1014.34 1014.40 1014.26 1014.00 1013.71 1013.49 1013.39 1013.42 1013.55 1013.71 1013.83 1013.85 1013.70 1013.38 1012.90 1012.31 1011.67 1011.05 1010.48
1009.10 1008.95 1008.87 1009.00 1009.44 1010.27 1011.46 1012.91 1014.45 1015.85 1016.91 1017.48 1017.47 1016.92 1015.94 1014.70 1013.44 1012.37 1011.65 1011.36 1011.50 1011.97 1012.65 1013.36 1013.97 1014.38 1014.54 1014.48 1014.26 1013.99 1013.74 1013.59 1013.57 1013.64 1013.78 1013.90 1013.94 1013.84 1013.59 1013.18 1012.65 1012.05 1011.44 1010.85
1008.98 1008.84 1008.79 1008.98 1009.50 1010.40 1011.64 1013.13 1014.67 1016.05 1017.07 1017.58 1017.50 1016.88 1015.82 1014.52 1013.21 1012.10 1011.36 1011.07 1011.22 1011.73 1012.46 1013.25 1013.95 1014.44 1014.68 1014.68 1014.49 1014.22 1013.95 1013.75 1013.67 1013.70 1013.80 1013.91 1013.97 1013.91 1013.72 1013.39 1012.94 1012.41 1011.84 1011.28
1008.86 1008.77 1008.79 1009.05 1009.62 1010.54 1011.78 1013.22 1014.68 1015.96 1016.88 1017.31 1017.17 1016.52 1015.46 1014.19 1012.92 1011.86 1011.17 1010.92 1011.12 1011.66 1012.44 1013.27 1014.01 1014.54 1014.83 1014.86 1014.70 1014.43 1014.14 1013.91 1013.78 1013.76 1013.82 1013.91 1013.97 1013.95 1013.82 1013.55 1013.18 1012.72 1012.22 1011.71
1008.69 1008.69 1008.81 1009.13 1009.74 1010.63 1011.79 1013.10 1014.41 1015.53 1016.31 1016.63 1016.46 1015.82 1014.84 1013.68 1012.56 1011.64 1011.07 1010.92 1011.17 1011.75 1012.54 1013.37 1014.11 1014.65 1014.95 1015.01 1014.87 1014.61 1014.32 1014.07 1013.91 1013.86 1013.88 1013.95 1014.00 1014.00 1013.90 1013.69 1013.38 1013.00 1012.56 1012.12
1008.45 1008.59 1008.82 1009.21 1009.81 1010.64 1011.66 1012.78 1013.87 1014.78 1015.39 1015.61 1015.42 1014.85 1014.01 1013.05 1012.14 1011.43 1011.04 1011.01 1011.33 1011.94 1012.71 1013.50 1014.21 1014.73 1015.02 1015.08 1014.97 1014.74 1014.47 1014.24 1014.08 1014.01 1014.01 1014.05 1014.09 1014.07 1013.98 1013.80 1013.54 1013.22 1012.85 1012.47
1008.19 1008.48 1008.82 1009.27 1009.86 1010.59 1011.42 1012.31 1013.14 1013.82 1014.25 1014.37 1014.18 1013.72 1013.06 1012.34 1011.69 1011.23 1011.04 1011.15 1011.54 1012.15 1012.87 1013.61 1014.24 1014.71 1014.98 1015.05 1014.97 1014.79 1014.58 1014.40 1014.27 1014.21 1014.20 1014.21 1014.22 1014.18 1014.08 1013.91 1013.67 1013.39 1013.08 1012.77
1007.96 1008.40 1008.86 1009.36 1009.91 1010.51 1011.15 1011.78 1012.34 1012.77 1013.02 1013.05 1012.88 1012.54 1012.09 1011.63 1011.26 1011.05 1011.06 1011.30 1011.74 1012.33 1012.99 1013.63 1014.17 1014.58 1014.82 1014.90 1014.87 1014.77 1014.64 1014.52 1014.45 1014.41 1014.40 1014.40 1014.37 1014.30 1014.17 1013.99 1013.76 1013.51 1013.24 1012.99
1007.85 1008.44 1008.99 1009.52 1010.02 1010.49 1010.92 1011.29 1011.58 1011.77 1011.85 1011.80 1011.65 1011.42 1011.18 1010.97 1010.86 1010.89 1011.07 1011.42 1011.89 1012.44 1013.01 1013.54 1013.99 1014.33 1014.54 1014.64 1014.67 1014.65 1014.62 1014.60 1014.59 1014.59 1014.59 1014.57 1014.51 1014.40 1014.24 1014.03 1013.80 1013.56 1013.34 1013.13
1007.93 1008.62 1009.25 1009.78 1010.21 1010.54 1010.76 1010.89 1010.93 1010.90 1010.82 1010.70 1010.56 1010.45 1010.38 1010.39 1010.51 1010.73 1011.07 1011.49 1011.97 1012.46 1012.94 1013.37 1013.72 1013.99 1014.19 1014.32 1014.41 1014.49 1014.56 1014.63 1014.69 1014.73 1014.74 1014.71 1014.61 1014.46 1014.26 1014.02 1013.79 1013.56 1013.37 1013.21
1008.22 1008.97 1009.62 1010.13 1010.47 1010.65 1010.68 1010.58 1010.40 1010.18 1009.96 1009.78 1009.66 1009.63 1009.71 1009.90 1010.20 1010.57 1011.01 1011.48 1011.95 1012.40 1012.79 1013.13 1013.40 1013.63 1013.82 1013.98 1014.15 1014.31 1014.47 1014.62 1014.75 1014.82 1014.84 1014.78 1014.65 1014.46 1014.22 1013.97 1013.72 1013.51 1013.34 1013.22
1008.69 1009.44 1010.06 1010.50 1010.73 1010.76 1010.61 1010.32 1009.96 1009.58 1009.25 1009.02 1008.91 1008.95 1009.14 1009.46 1009.89 1010.38 1010.89 1011.39 1011.85 1012.25 1012.58 1012.85 1013.08 1013.29 1013.48 1013.70 1013.92 1014.16 1014.40 1014.61 1014.78 1014.87 1014.88 1014.80 1014.63 1014.40 1014.14 1013.87 1013.63 1013.43 1013.29 1013.21
1009.25 1009.93 1010.46 1010.79 1010.89 1010.78 1010.47 1010.03 1009.52 1009.03 1008.62 1008.35 1008.26 1008.35 1008.62 1009.03 1009.55 1010.11 1010.68 1011.20 1011.65 1012.03 1012.33 1012.58 1012.79 1013.00 1013.23 1013.49 1013.77 1014.07 1014.36 1014.61 1014.79 1014.88 1014.87 1014.76 1014.56 1014.31 1014.03 1013.76 1013.53 1013.35 1013.24 1013.18
1009.76 1010.31 1010.71 1010.90 1010.86 1010.60 1010.17 1009.61 1009.01 1008.45 1008.01 1007.73 1007.65 1007.79 1008.11 1008.59 1009.16 1009.77 1010.37 1010.91 1011.37 1011.75 1012.06 1012.31 1012.55 1012.79 1013.06 1013.36 1013.70 1014.04 1014.35 1014.61 1014.79 1014.86 1014.82 1014.68 1014.46 1014.19 1013.91 1013.65 1013.44 1013.28 1013.20 1013.16
1010.11 1010.49 1010.71 1010.74 1010.56 1010.19 1009.66 1009.03 1008.39 1007.81 1007.37 1007.11 1007.06 1007.23 1007.60 1008.11 1008.72 1009.36 1009.98 1010.54 1011.02 1011.42 1011.75 1012.04 1012.32 1012.61 1012.93 1013.28 1013.65 1014.02 1014.34 1014.60 1014.75 1014.80 1014.73 1014.57 1014.33 1014.06 1013.78 1013.54 1013.35 1013.23 1013.16 1013.14
1010.21 1010.39 1010.43 1010.29 1009.99 1009.52 1008.94 1008.29 1007.66 1007.11 1006.71 1006.50 1006.50 1006.71 1007.10 1007.64 1008.26 1008.90 1009.53 1010.10 1010.61 1011.04 1011.41 1011.75 1012.09 1012.43 1012.80 1013.19 1013.59 1013.96 1014.28 1014.52 1014.65 1014.67 1014.58 1014.40 1014.16 1013.89 1013.64 1013.43 1013.27 1013.18 1013.13 1013.11
1010.04 1010.02 1009.87 1009.60 1009.18 1008.66 1008.07 1007.45 1006.87 1006.40 1006.07 1005.93 1005.99 1006.24 1006.65 1007.19 1007.81 1008.44 1009.06 1009.64 1010.15 1010.61 1011.03 1011.42 1011.80 1012.20 1012.62 1013.03 1013.44 1013.81 1014.12 1014.33 1014.44 1014.43 1014.33 1014.15 1013.93 1013.69 1013.47 1013.30 1013.17 1013.10 1013.07 1013.06
1009.64 1009.43 1009.13 1008.73 1008.25 1007.70 1007.14 1006.59 1006.10 1005.73 1005.51 1005.46 1005.58 1005.87 1006.29 1006.82 1007.41 1008.01 1008.61 1009.16 1009.68 1010.15 1010.59 1011.02 1011.45 1011.88 1012.32 1012.75 1013.16 1013.52 1013.81 1014.00 1014.09 1014.08 1013.98 1013.82 1013.63 1013.42 1013.25 1013.11 1013.02 1012.97 1012.95 1012.93
1009.10 1008.73 1008.29 1007.81 1007.29 1006.76 1006.25 1005.80 1005.43 1005.19 1005.08 1005.11 1005.30 1005.61 1006.04 1006.54 1007.08 1007.64 1008.18 1008.70 1009.19 1009.66 1010.11 1010.55 1011.00 1011.45 1011.90 1012.34 1012.74 1013.08 1013.35 1013.53 1013.61 1013.60 1013.53 1013.39 1013.24 1013.08 1012.94 1012.84 1012.78 1012.75 1012.74 1012.72
1008.51 1008.01 1007.48 1006.94 1006.42 1005.93 1005.50 1005.16 1004.92 1004.79 1004.79 1004.91 1005.15 1005.48 1005.89 1006.34 1006.83 1007.32 1007.80 1008.26 1008.71 1009.15 1009.59 1010.03 1010.48 1010.93 1011.37 1011.79 1012.17 1012.50 1012.75 1012.92 1013.01 1013.02 1012.97 1012.88 1012.77 1012.66 1012.56 1012.50 1012.46 1012.44 1012.43 1012.41
Thickness
5806 5791 5781 5787 5793 5793 5788 5781 5778 5787 5802 5795 5788 5787 5790 5794 5792 5790 5789 5788 5788 5789 5791 5790 5789 5788 5784 5781 5778 5775 5772 5770 5767 5763 5761 5759 5758 5759 5760 5760 5760 5760 5759 5759
5787 5782 5796 5801 5800 5794 5787 5779 5778 5788 5799 5793 5785 5784 5791 5793 5793 5794 5792 5790 5790 5790 5790 5790 5789 5788 5785 5782 5780 5777 5775 5772 5769 5767 5765 5763 5761 5761 5761 5762 5761 5761 5761 5760
5783 5791 5804 5800 5793 5787 5783 5779 5779 5780 5787 5789 5783 5776 5783 5791 5795 5796 5797 5796 5795 5793 5791 5791 5791 5790 5788 5784 5782 5781 5777 5775 5772 5769 5766 5764 5761 5761 5760 5760 5761 5762 5761 5761
5786 5798 5799 5793 5790 5787 5775 5790 5787 5782 5770 5759 5771 5750 5773 5782 5785 5791 5795 5796 5797 5798 5796 5794 5793 5791 5790 5788 5786 5783 5779 5776 5773 5771 5767 5764 5761 5758 5760 5761 5762 5762 5762 5761
5783 5794 5792 5787 5792 5792 5785 5793 5785 5777 5765 5754 5758 5749 5760 5777 5776 5787 5796 5800 5802 5803 5801 5798 5797 5796 5794 5791 5788 5784 5780 5777 5775 5772 5770 5766 5763 5762 5762 5762 5761 5762 5762 5761
5788 5799 5799 5796 5800 5798 5792 5780 5769 5756 5747 5735 5749 5744 5749 5767 5780 5790 5799 5803 5806 5806 5805 5802 5800 5797 5794 5792 5788 5785 5780 5778 5776 5773 5771 5768 5765 5763 5761 5761 5760 5761 5761 5761
5774 5785 5796 5800 5789 5789 5781 5755 5731 5729 5718 5724 5746 5743 5752 5784 5793 5796 5800 5804 5807 5807 5805 5802 5799 5797 5794 5792 5789 5786 5782 5779 5777 5775 5772 5770 5768 5766 5763 5762 5761 5760 5760 5760
5752 5754 5783 5791 5786 5776 5770 5758 5729 5718 5714 5723 5739 5738 5764 5791 5798 5802 5804 5805 5805 5805 5805 5804 5803 5800 5797 5794 5790 5787 5784 5780 5778 5775 5773 5771 5769 5767 5765 5764 5763 5762 5761 5761
5747 5752 5784 5792 5794 5783 5764 5752 5754 5729 5723 5718 5727 5744 5769 5790 5793 5796 5799 5800 5801 5802 5804 5804 5804 5802 5799 5796 5793 5789 5785 5782 5779 5777 5774 5772 5770 5768 5766 5765 5763 5762 5762 5761
5761 5753 5772 5784 5787 5781 5773 5754 5736 5722 5709 5708 5724 5734 5746 5771 5780 5787 5790 5793 5797 5800 5801 5802 5803 5802 5800 5798 5795 5791 5787 5784 5781 5778 5775 5773 5771 5769 5766 5764 5762 5761 5760 5759
5764 5749 5756 5767 5766 5762 5759 5749 5734 5718 5717 5706 5706 5728 5768 5773 5780 5782 5787 5791 5793 5796 5798 5799 5800 5801 5799 5796 5794 5790 5786 5783 5780 5778 5775 5772 5770 5768 5766 5763 5762 5760 5758 5757
5754 5739 5734 5751 5767 5772 5766 5753 5736 5724 5715 5708 5708 5730 5778 5778 5781 5782 5784 5788 5790 5792 5794 5795 5795 5794 5793 5792 5790 5788 5785 5782 5781 5778 5774 5771 5769 5767 5765 5763 5761 5759 5756 5754
5751 5734 5721 5729 5741 5754 5753 5749 5740 5726 5712 5702 5705 5731 5771 5773 5775 5777 5779 5782 5784 5785 5787 5787 5787 5786 5785 5786 5785 5784 5783 5781 5778 5775 5772 5769 5767 5765 5763 5761 5760 5757 5754 5751
5752 5728 5722 5717 5724 5738 5742 5744 5738 5728 5711 5707 5715 5732 5753 5760 5763 5768 5772 5775 5777 5778 5778 5778 5778 5778 5779 5780 5779 5779 5778 5777 5775 5772 5769 5766 5765 5762 5760 5758 5756 5753 5750 5748
5743 5724 5727 5730 5737 5739 5739 5740 5738 5732 5726 5719 5728 5731 5746 5753 5757 5761 5764 5767 5768 5769 5770 5771 5771 5771 5772 5773 5773 5773 5773 5772 5771 5768 5765 5764 5762 5759 5756 5753 5751 5748 5745 5744
5726 5720 5722 5723 5730 5732 5729 5733 5735 5734 5733 5729 5730 5732 5749 5751 5754 5755 5756 5758 5758 5760 5762 5763 5764 5764 5764 5765 5765 5766 5766 5766 5764 5762 5760 5758 5756 5753 5750 5748 5746 5744 5741 5738
5710 5710 5703 5700 5713 5719 5708 5723 5726 5728 5730 5728 5724 5731 5740 5741 5745 5747 5749 5750 5751 5753 5754 5755 5756 5757 5757 5757 5757 5757 5758 5758 5756 5754 5753 5751 5748 5746 5745 5743 5739 5737 5735 5732
5702 5693 5685 5686 5698 5688 5706 5726 5727 5722 5722 5724 5725 5728 5732 5734 5738 5741 5743 5743 5743 5745 5746 5748 5749 5750 5751 5751 5750 5749 5750 5749 5747 5745 5744 5742 5741 5739 5738 5734 5733 5731 5729 5725
5696 5688 5674 5669 5673 5682 5702 5715 5714 5710 5709 5717 5717 5721 5724 5728 5730 5731 5737 5737 5738 5739 5740 5741 5742 5742 5742 5742 5741 5740 5740 5739 5736 5735 5734 5734 5733 5730 5729 5727 5726 5724 5722 5718
5680 5679 5668 5660 5665 5665 5689 5709 5714 5707 5695 5709 5709 5710 5712 5716 5707 5714 5728 5729 5730 5731 5732 5733 5733 5733 5733 5732 5732 5730 5727 5726 5725 5726 5728 5727 5725 5722 5721 5720 5719 5717 5715 5714
5664 5660 5656 5654 5656 5665 5688 5699 5704 5683 5686 5700 5701 5701 5702 5701 5703 5711 5717 5718 5720 5721 5722 5723 5723 5723 5723 5723 5722 5719 5717 5717 5718 5719 5719 5717 5716 5715 5714 5712 5711 5709 5708 5706
5650 5647 5644 5641 5644 5655 5683 5685 5680 5680 5688 5690 5691 5692 5693 5695 5699 5702 5705 5707 5709 5710 5712 5713 5712 5711 5712 5712 5710 5709 5708 5711 5710 5708 5707 5706 5707 5706 5705 5702 5702 5700 5699 5696
5642 5644 5642 5644 5649 5662 5669 5673 5677 5677 5677 5680 5680 5683 5684 5685 5687 5690 5692 5694 5697 5698 5700 5701 5700 5700 5701 5701 5700 5698 5700 5701 5699 5698 5696 5696 5697 5695 5695 5693 5692 5690 5688 5686
5638 5639 5636 5639 5649 5656 5661 5665 5668 5669 5669 5672 5673 5674 5676 5675 5677 5678 5679 5681 5683 5685 5686 5687 5687 5687 5689 5690 5690 5690 5691 5690 5689 5687 5686 5685 5685 5685 5684 5682 5682 5680 5678 5677
5630 5631 5627 5630 5639 5645 5652 5655 5657 5659 5661 5662 5663 5665 5666 5666 5666 5667 5668 5670 5671 5673 5674 5675 5675 5676 5677 5679 5679 5680 5680 5679 5676 5676 5675 5674 5674 5673 5673 5672 5671 5670 5671 5671
5620 5621 5620 5623 5632 5631 5638 5645 5648 5648 5650 5651 5651 5653 5655 5656 5656 5657 5658 5660 5661 5663 5664 5664 5664 5665 5666 5667 5668 5669 5670 5669 5667 5665 5665 5664 5663 5662 5661 5660 5659 5659 5660 5660